Cadillac, MI

11:15 PM EDT on October 15, 2019 (GMT -0400)
Wexford County

Weather History for KCAD - June, 2019

Change the Weather History Date:

Wednesday, June 5, 2019

  Actual Average Record
Temperature  
Mean Temperature 66 °F -  
Max Temperature 72 °F 73 °F 88 °F (1963)
Min Temperature 60 °F 46 °F 26 °F (1998)
Cooling Degree Days 1    
Growing Degree Days 16 (Base 50)    
Moisture  
Dew Point 62 °F    
Average Humidity 87    
Maximum Humidity 95    
Minimum Humidity 70    
Precipitation  
Precipitation 0.00 in - - ()
Sea Level Pressure  
Sea Level Pressure 29.73 in    
Wind  
Wind Speed 4 mph (NNW)    
Max Wind Speed 9 mph    
Max Gust Speed -    
Visibility 10 miles    
Events Rain    
Averages and records for this station are not official NWS values.
T = Trace of Precipitation, MM = Missing Value Source: NWS Daily Summary

Daily Weather History Graph

Daily Weather History Graph

Search for Another Location

Airport or City:

Astronomy

Jun. 05, 2019 Rise Set
Actual Time 5:59 AM EDT 9:21 PM EDT
Civil Twilight 5:23 AM EDT 9:57 PM EDT
Nautical Twilight 4:36 AM EDT 10:44 PM EDT
Astronomical Twilight 3:37 AM EDT 11:43 PM EDT
Moon 8:03 AM EDT (6/5) 11:46 PM EDT (6/5)
Length of Visible Light 16h 34m
Length of Day
15h 22m
Waxing Crescent, 6% of the Moon is Illuminated
Jun 5
Waxing Crescent
Jun 10
First Quarter
Jun 17
Full
Jun 25
Last Quarter
Jul 2
New

Hourly Weather History & Observations

Time (EDT) Temp. Dew Point Humidity Pressure Visibility Wind Dir Wind Speed Gust Speed Precip Events Conditions
12:15 AM 65.5 °F 55.4 °F 70% 29.77 in 10.0 mi SSW 6.9 mph - N/A   Overcast
12:16 AM 65.5 °F 55.4 °F 70% 29.77 in 10.0 mi SSW 6.9 mph - N/A   Overcast
12:35 AM 65.5 °F 55.9 °F 71% 29.76 in 10.0 mi SSW 6.9 mph - N/A   Overcast
12:37 AM 65.3 °F 56.1 °F 72% 29.76 in 10.0 mi SSW 8.1 mph - N/A   Overcast
12:55 AM 64.9 °F 56.5 °F 74% 29.76 in 10.0 mi SSW 9.2 mph - N/A   Mostly Cloudy
12:56 AM 64.9 °F 56.5 °F 74% 29.77 in 10.0 mi SSW 8.1 mph - N/A   Mostly Cloudy
1:15 AM 64.4 °F 57.2 °F 77% 29.76 in 10.0 mi SSW 4.6 mph - N/A   Mostly Cloudy
1:16 AM 64.4 °F 57.2 °F 77% 29.76 in 10.0 mi SSW 4.6 mph - N/A   Mostly Cloudy
1:35 AM 64.4 °F 57.0 °F 77% 29.74 in 10.0 mi South 3.5 mph - N/A   Mostly Cloudy
1:55 AM 63.0 °F 56.8 °F 80% 29.74 in 10.0 mi Calm Calm - N/A   Scattered Clouds
2:15 AM 61.9 °F 56.7 °F 83% 29.73 in 10.0 mi Calm Calm - N/A   Scattered Clouds
2:35 AM 62.6 °F 57.0 °F 82% 29.72 in 10.0 mi Calm Calm - N/A   Mostly Cloudy
2:36 AM 62.8 °F 57.0 °F 81% 29.72 in 10.0 mi Calm Calm - N/A   Mostly Cloudy
2:55 AM 63.7 °F 57.6 °F 80% 29.71 in 10.0 mi South 3.5 mph - N/A   Overcast
3:16 AM 63.0 °F 58.1 °F 84% 29.70 in 10.0 mi Calm Calm - N/A   Mostly Cloudy
3:35 AM 62.1 °F 58.3 °F 87% 29.70 in 10.0 mi Calm Calm - N/A   Scattered Clouds
3:36 AM 62.1 °F 58.1 °F 87% 29.70 in 10.0 mi Calm Calm - N/A   Scattered Clouds
3:55 AM 61.2 °F 58.8 °F 92% 29.70 in 10.0 mi Calm Calm - N/A   Scattered Clouds
4:16 AM 60.8 °F 59.2 °F 94% 29.69 in 10.0 mi Calm Calm - N/A   Clear
4:35 AM 61.5 °F 59.9 °F 94% 29.69 in 10.0 mi Calm Calm - N/A   Mostly Cloudy
4:36 AM 61.7 °F 59.9 °F 94% 29.69 in 10.0 mi Calm Calm - N/A   Mostly Cloudy
4:55 AM 63.0 °F 61.0 °F 93% 29.70 in 10.0 mi WSW 3.5 mph - N/A Rain Rain
4:56 AM 62.8 °F 61.0 °F 94% 29.70 in 10.0 mi WSW 3.5 mph - N/A Rain Rain
5:16 AM 61.9 °F 60.3 °F 94% 29.70 in 10.0 mi South 4.6 mph - N/A Rain Rain
5:35 AM 61.9 °F 60.3 °F 94% 29.69 in 10.0 mi South 3.5 mph - N/A   Drizzle
5:36 AM 61.9 °F 60.3 °F 94% 29.69 in 10.0 mi South 3.5 mph - N/A   Drizzle
5:55 AM 61.7 °F 60.1 °F 94% 29.68 in 10.0 mi SSE 3.5 mph - N/A Rain Light Rain
5:56 AM 61.7 °F 60.1 °F 94% 29.68 in 10.0 mi SSE 3.5 mph - N/A Rain Light Rain
6:15 AM 61.7 °F 60.1 °F 94% 29.68 in 10.0 mi South 6.9 mph - N/A   Overcast
6:16 AM 61.7 °F 60.1 °F 94% 29.68 in 10.0 mi South 5.8 mph - N/A   Overcast
6:35 AM 62.2 °F 60.8 °F 95% 29.67 in 10.0 mi SW 3.5 mph - N/A   Overcast
6:36 AM 62.2 °F 60.8 °F 95% 29.67 in 10.0 mi Calm Calm - N/A   Overcast
6:56 AM 61.9 °F 60.3 °F 94% 29.68 in 10.0 mi NW 5.8 mph - N/A   Overcast
7:15 AM 61.9 °F 60.3 °F 94% 29.68 in 7.0 mi SW 4.6 mph - N/A   Overcast
7:16 AM 61.9 °F 60.3 °F 94% 29.68 in 10.0 mi WSW 4.6 mph - N/A   Overcast
7:35 AM 62.6 °F 60.8 °F 94% 29.68 in 10.0 mi WSW 3.5 mph - N/A   Overcast
7:56 AM 63.7 °F 62.1 °F 94% 29.68 in 10.0 mi Calm Calm - N/A   Overcast
8:15 AM 64.4 °F 62.8 °F 94% 29.68 in 10.0 mi Calm Calm - N/A   Overcast
8:16 AM 64.4 °F 62.8 °F 94% 29.68 in 10.0 mi Calm Calm - N/A   Overcast
8:36 AM 64.6 °F 63.0 °F 94% 29.68 in 10.0 mi Calm Calm - N/A   Overcast
8:55 AM 65.5 °F 63.9 °F 94% 29.67 in 10.0 mi Calm Calm - N/A   Overcast
9:15 AM 66.2 °F 64.6 °F 94% 29.68 in 10.0 mi North 3.5 mph - N/A   Overcast
9:16 AM 66.2 °F 64.6 °F 94% 29.68 in 10.0 mi North 3.5 mph - N/A   Overcast
9:36 AM 66.2 °F 64.4 °F 94% 29.68 in 10.0 mi Calm Calm - N/A   Overcast
9:55 AM 65.3 °F 63.7 °F 94% 29.68 in 10.0 mi NNE 4.6 mph - N/A   Overcast
9:56 AM 65.3 °F 63.7 °F 94% 29.68 in 10.0 mi NNE 4.6 mph - N/A   Overcast
10:15 AM 64.6 °F 63.0 °F 94% 29.68 in 7.0 mi Calm Calm - N/A   Overcast
10:35 AM 64.4 °F 62.8 °F 94% 29.67 in 5.0 mi Calm Calm - N/A   Overcast
10:36 AM 64.6 °F 63.0 °F 94% 29.67 in 5.0 mi Calm Calm - N/A   Overcast
10:55 AM 64.8 °F 63.1 °F 94% 29.68 in 7.0 mi Calm Calm - N/A   Overcast
10:57 AM 64.8 °F 63.1 °F 94% 29.68 in 7.0 mi Calm Calm - N/A   Overcast
11:16 AM 65.7 °F 64.2 °F 95% 29.68 in 7.0 mi SE 3.5 mph - N/A   Overcast
11:35 AM 67.1 °F 65.5 °F 95% 29.69 in 7.0 mi SE 3.5 mph - N/A   Overcast
11:56 AM 67.5 °F 65.5 °F 93% 29.69 in 10.0 mi SSW 3.5 mph - N/A   Overcast
12:15 PM 68.4 °F 65.8 °F 92% 29.69 in 10.0 mi Calm Calm - N/A   Overcast
12:16 PM 68.4 °F 65.7 °F 91% 29.69 in 10.0 mi Calm Calm - N/A   Overcast
12:35 PM 68.0 °F 66.4 °F 95% 29.70 in 10.0 mi West 3.5 mph - N/A Rain Light Rain
12:37 PM 68.2 °F 66.4 °F 94% 29.70 in 10.0 mi West 3.5 mph - N/A Rain Rain
12:56 PM 68.2 °F 66.6 °F 95% 29.71 in 10.0 mi Calm Calm - N/A   Overcast
1:15 PM 68.5 °F 66.7 °F 94% 29.71 in 10.0 mi Calm Calm - N/A Rain Light Rain
1:36 PM 68.2 °F 66.6 °F 95% 29.71 in 10.0 mi NW 4.6 mph - N/A Rain Light Rain
1:55 PM 69.4 °F 66.2 °F 89% 29.71 in 10.0 mi NNW 4.6 mph - N/A   Overcast
2:15 PM 69.1 °F 66.7 °F 92% 29.72 in 10.0 mi NNW 6.9 mph - N/A   Overcast
2:35 PM 69.1 °F 66.4 °F 91% 29.71 in 10.0 mi North 4.6 mph - N/A   Overcast
2:36 PM 69.1 °F 66.6 °F 92% 29.71 in 10.0 mi North 4.6 mph - N/A   Overcast
2:55 PM 68.9 °F 65.8 °F 90% 29.72 in 10.0 mi NNW 4.6 mph - N/A   Overcast
2:56 PM 68.9 °F 65.7 °F 89% 29.72 in 10.0 mi NNW 5.8 mph - N/A   Overcast
3:15 PM 70.0 °F 66.2 °F 88% 29.72 in 10.0 mi NNW 5.8 mph - N/A   Overcast
3:16 PM 70.2 °F 66.0 °F 87% 29.72 in 10.0 mi NNW 5.8 mph - N/A   Overcast
3:35 PM 70.3 °F 65.5 °F 85% 29.73 in 10.0 mi NNW 9.2 mph - N/A   Overcast
3:55 PM 68.9 °F 64.8 °F 87% 29.73 in 10.0 mi NNW 9.2 mph - N/A   Overcast
3:57 PM 69.1 °F 64.9 °F 87% 29.73 in 10.0 mi NNW 6.9 mph - N/A   Overcast
4:15 PM 69.3 °F 64.0 °F 83% 29.74 in 10.0 mi NNW 6.9 mph - N/A   Overcast
4:16 PM 69.1 °F 64.2 °F 84% 29.74 in 10.0 mi NNW 6.9 mph - N/A   Overcast
4:35 PM 70.0 °F 64.4 °F 82% 29.74 in 10.0 mi NW 8.1 mph - N/A   Overcast
4:37 PM 70.5 °F 64.6 °F 81% 29.74 in 10.0 mi NW 9.2 mph - N/A   Overcast
4:55 PM 71.8 °F 64.8 °F 78% 29.74 in 10.0 mi NNW 6.9 mph - N/A   Overcast
4:56 PM 72.0 °F 64.9 °F 78% 29.74 in 10.0 mi NNW 6.9 mph - N/A   Overcast
5:15 PM 71.2 °F 63.5 °F 76% 29.75 in 10.0 mi NNW 8.1 mph - N/A   Overcast
5:35 PM 71.1 °F 63.0 °F 75% 29.76 in 10.0 mi North 6.9 mph - N/A   Overcast
5:36 PM 70.9 °F 63.0 °F 76% 29.76 in 10.0 mi North 8.1 mph - N/A   Overcast
5:56 PM 71.4 °F 62.4 °F 73% 29.76 in 10.0 mi NW 6.9 mph - N/A   Overcast
6:15 PM 70.0 °F 62.6 °F 77% 29.76 in 10.0 mi NNW 5.8 mph - N/A   Overcast
6:16 PM 70.0 °F 62.8 °F 78% 29.76 in 10.0 mi North 5.8 mph - N/A   Overcast
6:35 PM 70.2 °F 63.3 °F 79% 29.76 in 10.0 mi NNW 6.9 mph - N/A   Overcast
6:55 PM 69.6 °F 62.4 °F 78% 29.76 in 10.0 mi North 5.8 mph - N/A   Overcast
6:56 PM 69.6 °F 62.4 °F 78% 29.76 in 10.0 mi North 6.9 mph - N/A   Overcast
7:16 PM 69.6 °F 61.7 °F 76% 29.76 in 10.0 mi North 6.9 mph - N/A   Mostly Cloudy
7:35 PM 69.1 °F 61.9 °F 78% 29.77 in 10.0 mi NNW 5.8 mph - N/A   Mostly Cloudy
7:56 PM 69.1 °F 61.5 °F 77% 29.77 in 10.0 mi NNW 4.6 mph - N/A   Overcast
8:15 PM 68.7 °F 61.3 °F 77% 29.78 in 10.0 mi North 4.6 mph - N/A   Overcast
8:16 PM 68.7 °F 61.3 °F 77% 29.78 in 10.0 mi NNW 4.6 mph - N/A   Overcast
8:35 PM 67.5 °F 61.3 °F 81% 29.78 in 10.0 mi North 5.8 mph - N/A   Overcast
8:37 PM 67.5 °F 61.3 °F 81% 29.78 in 10.0 mi North 6.9 mph - N/A   Overcast
8:55 PM 66.2 °F 61.0 °F 83% 29.79 in 10.0 mi North 4.6 mph - N/A   Overcast
8:56 PM 66.2 °F 61.0 °F 83% 29.79 in 10.0 mi NNE 4.6 mph - N/A   Overcast
9:15 PM 64.9 °F 61.2 °F 88% 29.79 in 10.0 mi North 3.5 mph - N/A   Overcast
9:16 PM 64.9 °F 61.2 °F 88% 29.79 in 10.0 mi NNE 4.6 mph - N/A   Overcast
9:35 PM 64.4 °F 61.0 °F 89% 29.79 in 10.0 mi North 3.5 mph - N/A   Overcast
9:36 PM 64.2 °F 61.0 °F 89% 29.79 in 10.0 mi North 3.5 mph - N/A   Overcast
9:55 PM 63.5 °F 61.0 °F 91% 29.80 in 10.0 mi North 4.6 mph - N/A   Overcast
9:56 PM 63.5 °F 61.0 °F 91% 29.80 in 10.0 mi North 5.8 mph - N/A   Overcast
10:15 PM 62.8 °F 61.2 °F 94% 29.81 in 10.0 mi North 4.6 mph - N/A   Overcast
10:35 PM 62.2 °F 60.8 °F 95% 29.82 in 10.0 mi North 3.5 mph - N/A   Overcast
10:36 PM 62.2 °F 60.8 °F 95% 29.82 in 10.0 mi North 3.5 mph - N/A   Overcast
10:56 PM 61.9 °F 60.3 °F 94% 29.83 in 10.0 mi NNW 4.6 mph - N/A   Overcast
11:15 PM 61.7 °F 60.1 °F 94% 29.83 in 10.0 mi North 3.5 mph - N/A   Overcast
11:16 PM 61.7 °F 60.1 °F 94% 29.83 in 10.0 mi North 3.5 mph - N/A   Overcast
11:35 PM 61.3 °F 59.9 °F 95% 29.83 in 10.0 mi North 3.5 mph - N/A   Overcast
11:36 PM 61.3 °F 59.9 °F 95% 29.83 in 10.0 mi NNE 3.5 mph - N/A   Overcast
11:55 PM 61.2 °F 59.5 °F 94% 29.84 in 10.0 mi NNE 3.5 mph - N/A   Overcast